• Join FlightAware (Why Join?)
  • Login
  • US Flag 
Rudolph Flight #1: Arrived! 
11:18AM EST


 

Airport Tracker/Info


-or-


 

Live Flight TrackerFlight Track Log ✈ N365SC ✈ 28-Jun-2013 ✈ KBFI - KGPI

Flight Track Log - Related Links

Times and Time Zones

All times are in EDT time to prevent confusion due to time zone crossing. See the N365SC flight status page for this flight to view local times or setup timezone preferences in your user account.

Time Position Orientation Groundspeed Altitude Reporting Facility
EDT Latitude Longitude Course Direction KTS MPH feet Rate Location/Type
12:27PM 47.5514 -122.3217 329° Northwest 183 211 1,200  Level Seattle Center
12:28PM 47.5972 -122.3622 329° Northwest 211 243 3,400 1,980 Climbing Seattle Center
12:29PM 47.6478 -122.4131 326° Northwest 229 264 5,100 1,680 Climbing Seattle Center
12:30PM 47.6469 -122.4892 269° West 210 242 6,700 2,100 Climbing Seattle Center
12:31PM 47.5989 -122.5569 224° Southwest 199 229 10,100 2,460 Climbing Seattle Center
12:32PM 47.5447 -122.5408 169° South 209 241 12,700 2,040 Climbing Seattle Center
12:33PM 47.5286 -122.4186 101° East 332 382 14,300 1,680 Climbing Seattle Center
12:34PM 47.5367 -122.2589 86° East 389 448 16,200 1,740 Climbing Seattle Center
12:35PM 47.5444 -122.1067 86° East 404 465 17,900 1,860 Climbing Seattle Center
12:36PM 47.5517 -121.9361 86° East 416 479 20,000 2,040 Climbing Seattle Center
12:37PM 47.5611 -121.7617 85° East 427 491 22,100 2,220 Climbing Seattle Center
12:38PM 47.5597 -121.5508 90° East 430 495 24,600 2,220 Climbing Seattle Center
12:39PM 47.5572 -121.3739 91° East 436 502 26,700 1,740 Climbing Seattle Center
12:40PM 47.5542 -121.1931 91° East 445 512 28,200 1,440 Climbing Seattle Center
12:41PM 47.5503 -121.0050 92° East 461 531 29,700 1,320 Climbing Seattle Center
12:42PM 47.5472 -120.8242 91° East 465 535 30,900 1,020 Climbing Seattle Center
12:43PM 47.5447 -120.6278 91° East 475 547 31,900 1,020 Climbing Seattle Center
12:44PM 47.5736 -120.3842 80° East 499 574 33,100 1,080 Climbing Seattle Center
12:45PM 47.6025 -120.1781 78° East 510 587 34,100 780 Climbing Seattle Center
12:46PM 47.6303 -119.9700 79° East 513 590 34,700 420 Climbing Seattle Center
12:47PM 47.6581 -119.7603 79° East 518 596 35,000 120 Climbing Seattle Center
12:48PM 47.6853 -119.5475 79° East 524 603 35,000  Level Seattle Center
12:49PM 47.7119 -119.3344 79° East 526 605 35,000  Level Seattle Center
12:50PM 47.7389 -119.1178 79° East 533 613 35,000  Level Seattle Center
12:51PM 47.7669 -118.9003 79° East 537 618 35,000  Level Seattle Center
12:52PM 47.7939 -118.6806 80° East 539 620 35,000  Level Seattle Center
12:53PM 47.8239 -118.4189 80° East 538 619 35,000  Level Seattle Center
12:54PM 47.8511 -118.1997 79° East 539 620 35,000  Level Seattle Center
12:55PM 47.8767 -117.9800 80° East 539 620 35,000  Level Seattle Center
12:56PM 47.9017 -117.7614 80° East 537 618 35,000  Level Seattle Center
12:58PM 47.9275 -117.5400 80° East 541 623 35,000  Level Seattle Center
12:59PM 47.9519 -117.3189 81° East 538 619 35,000  Level Seattle Center
01:00PM 47.9750 -117.0961 81° East 539 620 35,000  Level Seattle Center
01:01PM 47.9981 -116.8742 81° East 538 619 35,000  Level Seattle Center
01:02PM 48.0208 -116.6508 81° East 539 620 35,000  Level Seattle Center
01:03PM 48.0431 -116.4286 81° East 539 620 35,000 -1,680 Level Seattle Center
01:04PM 48.0703 -116.1561 81° East 550 633 31,600 -3,360 Descending Seattle Center
01:05PM 48.0917 -115.9256 82° East 559 643 28,200 -3,300 Descending Seattle Center
01:06PM 48.1114 -115.7050 82° East 540 621 24,900 -3,060 Descending Seattle Center
01:07PM 48.1303 -115.5131 82° East 513 590 22,000 -2,880 Descending Seattle Center
01:08PM 48.1494 -115.3086 82° East 501 577 19,000 -2,820 Descending Seattle Center
01:09PM 48.1667 -115.1156 82° East 479 551 16,300 -2,880 Descending Seattle Center
01:09PM 48.1758 -115.0031 83° East 466 536 14,400 -2,280 Descending Salt Lake Center
01:10PM 48.1897 -114.8361 83° East 418 481 12,700 -1,680 Descending Salt Lake Center
01:11PM 48.2014 -114.6694 84° East 346 398 11,000 -1,860 Descending Salt Lake Center
01:12PM 48.1964 -114.5494 94° East 307 353 8,900 -2,340 Descending Salt Lake Center
01:14PM 48.2122 -114.4464 77° East 275 316 6,200 -1,920 Descending Salt Lake Center
01:15PM 48.2325 -114.3589 71° East 242 278 5,000 -900 Descending Salt Lake Center
01:16PM 48.2747 -114.3333 22° Northeast 207 238 4,400 -360 Descending Salt Lake Center
01:17PM 48.3239 -114.3169 12° North 191 220 4,300 -120 Descending Salt Lake Center
01:18PM 48.3706 -114.2967 16° North 182 209 4,200 -300 Descending Salt Lake Center
01:19PM 48.3756 -114.2331 83° East 168 193 3,700 -480 Descending Salt Lake Center
01:20PM 48.3397 -114.2253 172° South 157 181 3,300 -420 Descending Salt Lake Center
01:21PM 48.3092 -114.2564 214° Southwest 144 166 2,900 -420 Descending Salt Lake Center